EZY74WG LTAI-EGKK

Flight info

Callsign EZY74WG
Flight time N/A
Altitude 34000
Route EKSEN UT337 EKNUD UQ26 DIGBO UL615 VADEN DCT OSTEX DCT UTEKA DCT IRGOR DCT KOTUS DCT BABIT DCT SOGMO DCT SASAL DCT OBFEZ DCT SITNI DCT RENKA DCT INBED DCT BOMBI DCT DENUT L610 TEBRA
Aircraft A21N/M-SDE2E3FGHIJ1RWXYZ/LB1G1

Departure

Time 2026-05-06 12:26
Airport Antalya International Airport (LTAI)

Arrival

Time N/A
Airport London Gatwick Airport (EGKK)
Time Latitude Longitude Altitude Speed Heading
2026-05-06 11:38 36.89689 30.80406 182 ft 0 kts 355°
2026-05-06 12:15 36.89679 30.80407 183 ft 2 kts 355°
2026-05-06 12:15 36.89664 30.80409 182 ft 2 kts 355°
2026-05-06 12:15 36.89649 30.80410 182 ft 2 kts 355°
2026-05-06 12:16 36.89634 30.80411 183 ft 2 kts 355°
2026-05-06 12:16 36.89619 30.80413 183 ft 2 kts 355°
2026-05-06 12:16 36.89604 30.80411 183 ft 2 kts 31°
2026-05-06 12:16 36.89593 30.80398 183 ft 2 kts 66°
2026-05-06 12:17 36.89591 30.80385 183 ft 0 kts 93°
2026-05-06 12:17 36.89592 30.80376 183 ft 1 kts 97°
2026-05-06 12:17 36.89592 30.80375 183 ft 0 kts 97°
2026-05-06 12:19 36.89591 30.80383 183 ft 2 kts 96°
2026-05-06 12:19 36.89587 30.80427 182 ft 7 kts 96°
2026-05-06 12:20 36.89580 30.80516 181 ft 13 kts 96°
2026-05-06 12:20 36.89570 30.80644 177 ft 13 kts 94°
2026-05-06 12:20 36.89640 30.80697 174 ft 16 kts
2026-05-06 12:20 36.89765 30.80715 173 ft 19 kts
2026-05-06 12:21 36.89908 30.80735 173 ft 22 kts
2026-05-06 12:21 36.90067 30.80757 175 ft 23 kts
2026-05-06 12:21 36.90236 30.80780 176 ft 24 kts
2026-05-06 12:21 36.90411 30.80805 178 ft 25 kts
2026-05-06 12:22 36.90590 30.80829 180 ft 26 kts
2026-05-06 12:22 36.90774 30.80855 181 ft 26 kts
2026-05-06 12:22 36.90947 30.80878 183 ft 14 kts
2026-05-06 12:22 36.90992 30.80957 181 ft 11 kts 94°
2026-05-06 12:23 36.90991 30.80971 181 ft 0 kts 95°
2026-05-06 12:24 36.90989 30.80991 181 ft 5 kts 96°
2026-05-06 12:24 36.90978 30.81090 178 ft 15 kts 110°
2026-05-06 12:25 36.90907 30.81110 179 ft 21 kts 185°
2026-05-06 12:25 36.90505 30.81053 181 ft 91 kts 186°
2026-05-06 12:25 36.89662 30.80938 166 ft 150 kts 186°
2026-05-06 12:25 36.88500 30.80776 436 ft 173 kts 186°
2026-05-06 12:26 36.87325 30.80665 1046 ft 174 kts 176°
2026-05-06 12:26 36.86138 30.80883 1678 ft 175 kts 165°
2026-05-06 12:26 36.84938 30.81243 2211 ft 184 kts 167°
2026-05-06 12:26 36.83627 30.81540 2617 ft 200 kts 168°
2026-05-06 12:27 36.82212 30.81833 3021 ft 214 kts 169°
2026-05-06 12:27 36.80702 30.82138 3541 ft 221 kts 167°
2026-05-06 12:27 36.79227 30.82675 4107 ft 224 kts 158°
2026-05-06 12:27 36.77750 30.83501 4399 ft 244 kts 153°
2026-05-06 12:28 36.76180 30.84464 4762 ft 262 kts 152°
2026-05-06 12:28 36.74628 30.85719 5195 ft 274 kts 131°
2026-05-06 12:28 36.73711 30.87763 5868 ft 275 kts 102°
2026-05-06 12:28 36.73475 30.90104 6605 ft 275 kts 92°
2026-05-06 12:29 36.73332 30.92487 7294 ft 280 kts 92°
2026-05-06 12:29 36.73171 30.94921 8005 ft 283 kts 92°
2026-05-06 12:29 36.72992 30.97357 8700 ft 286 kts 92°
2026-05-06 12:29 36.72798 30.99843 9396 ft 290 kts 92°
2026-05-06 12:30 36.72599 31.02326 10060 ft 293 kts 93°
2026-05-06 12:30 36.72395 31.04874 10553 ft 303 kts 91°
2026-05-06 12:30 36.72531 31.07519 10822 ft 314 kts 71°
2026-05-06 12:30 36.73511 31.09985 11104 ft 323 kts 49°
2026-05-06 12:31 36.75232 31.11856 11371 ft 333 kts 27°
2026-05-06 12:31 36.77414 31.12761 11830 ft 337 kts
2026-05-06 12:31 36.79761 31.13060 12506 ft 339 kts
2026-05-06 12:31 36.82114 31.13360 13128 ft 343 kts
2026-05-06 12:32 36.84507 31.13368 13699 ft 345 kts 349°
2026-05-06 12:32 36.86761 31.12459 14294 ft 347 kts 332°
2026-05-06 12:32 36.88777 31.10752 14912 ft 349 kts 322°
2026-05-06 12:32 36.90686 31.08882 15508 ft 352 kts 322°
2026-05-06 12:33 36.92613 31.06981 16070 ft 355 kts 322°
2026-05-06 12:33 36.94537 31.05089 16642 ft 358 kts 322°
2026-05-06 12:33 36.96518 31.03148 17198 ft 361 kts 322°
2026-05-06 12:33 36.98498 31.01212 17720 ft 364 kts 322°
2026-05-06 12:34 37.00499 30.99255 18260 ft 366 kts 322°
2026-05-06 12:34 37.02508 30.97290 18792 ft 369 kts 322°
2026-05-06 12:34 37.04529 30.95313 19305 ft 372 kts 322°
2026-05-06 12:34 37.06577 30.93311 19817 ft 374 kts 322°
2026-05-06 12:35 37.08633 30.91298 20340 ft 376 kts 322°
2026-05-06 12:35 37.10669 30.89303 20812 ft 378 kts 321°
2026-05-06 12:35 37.12777 30.87236 21305 ft 381 kts 321°
2026-05-06 12:35 37.14851 30.85202 21802 ft 382 kts 321°
2026-05-06 12:36 37.16950 30.83139 22298 ft 383 kts 321°
2026-05-06 12:36 37.19040 30.81084 22762 ft 385 kts 321°
2026-05-06 12:36 37.21146 30.79011 23169 ft 388 kts 321°
2026-05-06 12:36 37.23284 30.76904 23613 ft 390 kts 321°
2026-05-06 12:37 37.25412 30.74857 24039 ft 391 kts 325°
2026-05-06 12:37 37.27807 30.73171 24422 ft 394 kts 335°
2026-05-06 12:37 37.30377 30.72052 24813 ft 398 kts 344°
2026-05-06 12:37 37.33133 30.71405 25200 ft 400 kts 349°
2026-05-06 12:38 37.35886 30.70898 25577 ft 402 kts 349°
2026-05-06 12:38 37.38638 30.70421 25915 ft 404 kts 351°
2026-05-06 12:38 37.41449 30.70082 26229 ft 407 kts 353°
2026-05-06 12:38 37.44315 30.69867 26553 ft 409 kts 354°
2026-05-06 12:39 37.47156 30.69681 26871 ft 411 kts 354°
2026-05-06 12:39 37.49997 30.69499 27165 ft 412 kts 354°
2026-05-06 12:39 37.52875 30.69309 27449 ft 414 kts 354°
2026-05-06 12:39 37.55763 30.69116 27769 ft 415 kts 354°
2026-05-06 12:40 37.58625 30.68925 28063 ft 416 kts 354°
2026-05-06 12:40 37.61550 30.68739 28329 ft 418 kts 354°
2026-05-06 12:40 37.64434 30.68560 28577 ft 420 kts 354°
2026-05-06 12:40 37.67379 30.68376 28813 ft 422 kts 354°
2026-05-06 12:41 37.70300 30.68195 29059 ft 424 kts 354°
2026-05-06 12:41 37.73259 30.68011 29365 ft 424 kts 354°
2026-05-06 12:41 37.76189 30.67829 29713 ft 422 kts 354°
2026-05-06 12:41 37.79134 30.67645 30052 ft 421 kts 354°
2026-05-06 12:42 37.82046 30.67480 30364 ft 421 kts 355°
2026-05-06 12:42 37.84984 30.67570 30662 ft 422 kts
2026-05-06 12:42 37.87876 30.67988 30982 ft 423 kts
2026-05-06 12:42 37.90756 30.68740 31308 ft 423 kts 11°
2026-05-06 12:43 37.93583 30.69823 31631 ft 424 kts 15°
2026-05-06 12:43 37.96325 30.71222 31930 ft 425 kts 20°
2026-05-06 12:43 37.99006 30.72776 32225 ft 424 kts 21°
2026-05-06 12:43 38.01654 30.74349 32468 ft 423 kts 21°
2026-05-06 12:44 38.04322 30.75932 32659 ft 424 kts 20°
2026-05-06 12:44 38.07064 30.77369 32811 ft 422 kts 15°
2026-05-06 12:44 38.09867 30.78472 32945 ft 421 kts 11°
2026-05-06 12:44 38.12727 30.79246 33087 ft 420 kts
2026-05-06 12:45 38.15619 30.79692 33218 ft 420 kts
2026-05-06 12:45 38.18550 30.79809 33351 ft 419 kts 356°
2026-05-06 12:45 38.24354 30.79162 33623 ft 419 kts 350°
2026-05-06 12:46 38.27253 30.78685 33776 ft 419 kts 349°
2026-05-06 12:46 38.30124 30.78203 33933 ft 420 kts 349°
2026-05-06 12:46 38.33020 30.77718 34085 ft 420 kts 349°
2026-05-06 12:47 38.38804 30.76754 34098 ft 421 kts 350°
2026-05-06 12:47 38.44640 30.75784 34103 ft 421 kts 350°
2026-05-06 12:48 38.50435 30.74824 34106 ft 420 kts 350°
2026-05-06 12:48 38.56240 30.73858 34105 ft 421 kts 350°
2026-05-06 12:49 38.62023 30.72895 34103 ft 421 kts 350°
2026-05-06 12:49 38.67849 30.71925 34104 ft 421 kts 350°
2026-05-06 12:50 38.73638 30.70958 34106 ft 421 kts 350°
2026-05-06 12:50 38.79415 30.69834 34106 ft 419 kts 346°
2026-05-06 12:51 38.85049 30.68001 34105 ft 418 kts 341°
2026-05-06 12:51 38.90479 30.65426 34105 ft 416 kts 335°
2026-05-06 12:52 38.95678 30.62218 34105 ft 415 kts 332°
2026-05-06 12:52 39.00814 30.58871 34103 ft 415 kts 332°
2026-05-06 12:53 39.05983 30.55495 34101 ft 415 kts 332°
2026-05-06 12:53 39.11162 30.52108 34104 ft 415 kts 332°
2026-05-06 12:54 39.16330 30.48724 34102 ft 415 kts 332°
2026-05-06 12:54 39.21472 30.45350 34100 ft 415 kts 332°
2026-05-06 12:55 39.26585 30.41993 34100 ft 415 kts 332°
2026-05-06 12:55 39.31748 30.38596 34095 ft 415 kts 332°
2026-05-06 12:56 39.36887 30.35208 34095 ft 415 kts 332°
2026-05-06 12:56 39.42024 30.31817 34092 ft 415 kts 332°
2026-05-06 12:57 39.47136 30.28437 34093 ft 415 kts 332°
2026-05-06 12:57 39.52397 30.25275 34089 ft 416 kts 336°
2026-05-06 12:58 39.57742 30.22418 34088 ft 415 kts 336°
2026-05-06 12:58 39.63042 30.19596 34086 ft 415 kts 336°
2026-05-06 12:59 39.68386 30.16744 34092 ft 414 kts 336°
2026-05-06 12:59 39.73692 30.13904 34087 ft 414 kts 336°
2026-05-06 13:00 39.79019 30.11047 34093 ft 414 kts 336°
2026-05-06 13:00 39.84342 30.08188 34091 ft 415 kts 336°
2026-05-06 13:01 39.89676 30.05320 34084 ft 414 kts 336°
2026-05-06 13:01 39.95006 30.02447 34090 ft 413 kts 336°
2026-05-06 13:02 40.00325 29.99575 34089 ft 414 kts 336°
2026-05-06 13:02 40.05649 29.96695 34091 ft 414 kts 336°
2026-05-06 13:03 40.10981 29.93804 34099 ft 414 kts 336°
2026-05-06 13:03 40.16302 29.90918 34094 ft 415 kts 336°
2026-05-06 13:04 40.21615 29.88032 34091 ft 414 kts 336°
2026-05-06 13:04 40.26938 29.85135 34080 ft 414 kts 336°
2026-05-06 13:05 40.32250 29.82236 34086 ft 416 kts 336°
2026-05-06 13:05 40.37593 29.79318 34089 ft 416 kts 336°
2026-05-06 13:06 40.42917 29.76405 34088 ft 415 kts 336°
2026-05-06 13:06 40.48225 29.73496 34089 ft 415 kts 336°
2026-05-06 13:07 40.53573 29.70560 34085 ft 416 kts 336°
2026-05-06 13:07 40.58919 29.67618 34083 ft 417 kts 337°
2026-05-06 13:08 40.64123 29.64338 34077 ft 417 kts 331°
2026-05-06 13:08 40.69070 29.60324 34072 ft 417 kts 326°
2026-05-06 13:09 40.73686 29.55705 34071 ft 417 kts 322°
2026-05-06 13:09 40.78197 29.50950 34070 ft 418 kts 322°
2026-05-06 13:10 40.82737 29.46152 34073 ft 418 kts 322°
2026-05-06 13:10 40.87280 29.41345 34073 ft 418 kts 322°
2026-05-06 13:11 40.91814 29.36538 34072 ft 418 kts 322°
2026-05-06 13:11 40.96355 29.31717 34072 ft 418 kts 322°
2026-05-06 13:12 41.00890 29.26897 34073 ft 417 kts 322°
2026-05-06 13:12 41.05402 29.22087 34078 ft 417 kts 322°
2026-05-06 13:13 41.09759 29.17062 34069 ft 418 kts 317°
2026-05-06 13:13 41.13730 29.11409 34066 ft 418 kts 311°
2026-05-06 13:14 41.17210 29.05260 34075 ft 419 kts 306°
2026-05-06 13:14 41.20443 28.98829 34073 ft 419 kts 306°
2026-05-06 13:15 41.23668 28.92366 34078 ft 419 kts 306°
2026-05-06 13:15 41.26873 28.85935 34080 ft 418 kts 306°
2026-05-06 13:16 41.30060 28.79529 34082 ft 418 kts 306°
2026-05-06 13:16 41.33264 28.73077 34073 ft 417 kts 306°
2026-05-06 13:17 41.36452 28.66644 34085 ft 418 kts 306°
2026-05-06 13:17 41.39645 28.60183 34084 ft 417 kts 306°
2026-05-06 13:18 41.42813 28.53764 34076 ft 417 kts 306°
2026-05-06 13:18 41.45986 28.47322 34069 ft 417 kts 306°
2026-05-06 13:19 41.49159 28.40865 34076 ft 417 kts 306°
2026-05-06 13:19 41.52331 28.34392 34078 ft 417 kts 305°
2026-05-06 13:20 41.55490 28.27936 34076 ft 416 kts 305°
2026-05-06 13:20 41.58636 28.21494 34073 ft 416 kts 305°
2026-05-06 13:21 41.61782 28.15033 34077 ft 416 kts 306°
2026-05-06 13:21 41.64933 28.08553 34071 ft 416 kts 306°
2026-05-06 13:22 41.68055 28.02118 34077 ft 415 kts 306°
2026-05-06 13:22 41.71205 27.95612 34072 ft 415 kts 306°
2026-05-06 13:23 41.74313 27.89179 34077 ft 415 kts 305°
2026-05-06 13:23 41.77446 27.82678 34067 ft 415 kts 306°
2026-05-06 13:24 41.80560 27.76204 34070 ft 414 kts 306°
2026-05-06 13:24 41.83671 27.69722 34073 ft 414 kts 306°
2026-05-06 13:25 41.86771 27.63250 34072 ft 414 kts 306°
2026-05-06 13:25 41.89873 27.56760 34073 ft 415 kts 306°
2026-05-06 13:26 41.92985 27.50237 34071 ft 415 kts 306°
2026-05-06 13:26 41.96066 27.43765 34067 ft 414 kts 306°
2026-05-06 13:27 41.99152 27.37263 34070 ft 413 kts 306°
2026-05-06 13:27 42.02250 27.30726 34068 ft 413 kts 305°
2026-05-06 13:28 42.05312 27.24232 34071 ft 413 kts 304°
2026-05-06 13:28 42.08063 27.17442 34071 ft 416 kts 299°
2026-05-06 13:29 42.10616 27.10403 34064 ft 415 kts 299°
2026-05-06 13:29 42.13134 27.03418 34060 ft 415 kts 299°
2026-05-06 13:30 42.15654 26.96448 34054 ft 415 kts 300°
2026-05-06 13:30 42.18423 26.89622 34054 ft 415 kts 302°
2026-05-06 13:31 42.21227 26.82856 34058 ft 414 kts 302°
2026-05-06 13:31 42.24005 26.76134 34052 ft 414 kts 302°
2026-05-06 13:32 42.26807 26.69336 34047 ft 413 kts 302°
2026-05-06 13:32 42.29595 26.62557 34042 ft 413 kts 302°
2026-05-06 13:33 42.32361 26.55818 34042 ft 413 kts 302°
2026-05-06 13:33 42.35137 26.49034 34035 ft 413 kts 302°
2026-05-06 13:34 42.37911 26.42239 34039 ft 413 kts 302°
2026-05-06 13:34 42.40671 26.35466 34037 ft 413 kts 302°
2026-05-06 13:35 42.43437 26.28658 34033 ft 413 kts 302°
2026-05-06 13:35 42.46205 26.21830 34028 ft 413 kts 301°
2026-05-06 13:36 42.48957 26.15029 34031 ft 412 kts 302°
2026-05-06 13:36 42.51696 26.08242 34033 ft 413 kts 302°
2026-05-06 13:37 42.54351 26.01649 34032 ft 412 kts 302°
2026-05-06 13:37 42.57077 25.94864 34044 ft 411 kts 301°
2026-05-06 13:38 42.59811 25.88046 34047 ft 411 kts 301°
2026-05-06 13:38 42.62530 25.81243 34055 ft 410 kts 301°
2026-05-06 13:39 42.65236 25.74460 34060 ft 411 kts 301°
2026-05-06 13:39 42.67950 25.67638 34061 ft 411 kts 301°
2026-05-06 13:40 42.70649 25.60843 34067 ft 411 kts 301°
2026-05-06 13:40 42.73358 25.54003 34072 ft 411 kts 301°
2026-05-06 13:41 42.76055 25.47174 34078 ft 411 kts 302°
2026-05-06 13:41 42.78746 25.40352 34074 ft 411 kts 301°
2026-05-06 13:42 42.81444 25.33487 34069 ft 411 kts 301°
2026-05-06 13:42 42.84131 25.26642 34067 ft 410 kts 301°
2026-05-06 13:43 42.86788 25.19853 34063 ft 409 kts 301°
2026-05-06 13:43 42.89451 25.13036 34056 ft 408 kts 301°
2026-05-06 13:44 42.92115 25.06193 34056 ft 408 kts 301°
2026-05-06 13:44 42.94777 24.99346 34043 ft 408 kts 301°
2026-05-06 13:45 42.97417 24.92533 34038 ft 408 kts 301°
2026-05-06 13:45 43.01399 24.82235 34037 ft 410 kts 301°
2026-05-06 13:46 43.04036 24.75396 34038 ft 411 kts 300°
2026-05-06 13:46 43.06702 24.68461 34035 ft 411 kts 300°
2026-05-06 13:47 43.09338 24.61585 34028 ft 411 kts 300°
2026-05-06 13:47 43.11991 24.54651 34022 ft 411 kts 300°
2026-05-06 13:48 43.14629 24.47740 34016 ft 411 kts 300°
2026-05-06 13:48 43.17264 24.40819 34012 ft 412 kts 300°
2026-05-06 13:49 43.19916 24.33830 34011 ft 413 kts 299°
2026-05-06 13:49 43.22557 24.26860 34006 ft 413 kts 299°
2026-05-06 13:50 43.25200 24.19867 34003 ft 413 kts 299°
2026-05-06 13:50 43.27845 24.12852 34003 ft 414 kts 299°
2026-05-06 13:51 43.30484 24.05836 34003 ft 414 kts 299°
2026-05-06 13:51 43.33108 23.98836 34003 ft 415 kts 299°
2026-05-06 13:52 43.35733 23.91814 34001 ft 415 kts 299°
2026-05-06 13:52 43.38370 23.84755 33998 ft 415 kts 299°
2026-05-06 13:53 43.40978 23.77751 33996 ft 415 kts 298°
2026-05-06 13:53 43.43604 23.70679 33993 ft 415 kts 298°
2026-05-06 13:54 43.46213 23.63635 33992 ft 416 kts 298°
2026-05-06 13:54 43.48829 23.56553 33987 ft 416 kts 298°
2026-05-06 13:55 43.51443 23.49459 33986 ft 416 kts 298°
2026-05-06 13:55 43.54048 23.42374 33986 ft 416 kts 298°
2026-05-06 13:56 43.56665 23.35242 33990 ft 417 kts 298°
2026-05-06 13:56 43.59261 23.28139 33991 ft 417 kts 297°
2026-05-06 13:57 43.61859 23.21016 33993 ft 417 kts 297°
2026-05-06 13:57 43.64458 23.13870 33994 ft 416 kts 297°
2026-05-06 13:58 43.67043 23.06752 33993 ft 417 kts 297°
2026-05-06 13:58 43.69626 22.99618 33995 ft 417 kts 297°
2026-05-06 13:59 43.72219 22.92436 33998 ft 418 kts 297°
2026-05-06 13:59 43.74793 22.85290 33983 ft 418 kts 297°
2026-05-06 14:00 43.77376 22.78096 33979 ft 418 kts 297°
2026-05-06 14:00 43.79950 22.70909 33965 ft 418 kts 297°
2026-05-06 14:01 43.82520 22.63722 33969 ft 418 kts 297°
2026-05-06 14:01 43.85083 22.56530 33977 ft 419 kts 297°
2026-05-06 14:02 43.87655 22.49293 33980 ft 420 kts 296°
2026-05-06 14:02 43.90278 22.42046 33982 ft 420 kts 299°
2026-05-06 14:03 43.93315 22.35176 33983 ft 419 kts 304°
2026-05-06 14:03 43.96685 22.28577 33983 ft 420 kts 304°
2026-05-06 14:04 44.00060 22.22015 33983 ft 420 kts 304°
2026-05-06 14:04 44.03463 22.15378 33986 ft 421 kts 304°
2026-05-06 14:05 44.06856 22.08741 33989 ft 421 kts 304°
2026-05-06 14:05 44.10239 22.02105 33996 ft 422 kts 304°
2026-05-06 14:06 44.13635 21.95429 34000 ft 421 kts 304°
2026-05-06 14:06 44.17014 21.88775 34000 ft 422 kts 304°
2026-05-06 14:07 44.20401 21.82158 33992 ft 422 kts 307°
2026-05-06 14:07 44.24225 21.75971 33992 ft 423 kts 310°
2026-05-06 14:08 44.28109 21.69840 33983 ft 423 kts 310°
2026-05-06 14:08 44.31982 21.63678 33980 ft 422 kts 310°
2026-05-06 14:09 44.35838 21.57509 33975 ft 422 kts 310°
2026-05-06 14:09 44.39682 21.51337 33966 ft 422 kts 309°
2026-05-06 14:10 44.43507 21.45179 33964 ft 423 kts 309°
2026-05-06 14:10 44.47378 21.38928 33961 ft 423 kts 309°
2026-05-06 14:11 44.51214 21.32723 33957 ft 423 kts 309°
2026-05-06 14:11 44.55040 21.26519 33948 ft 422 kts 309°
2026-05-06 14:12 44.58888 21.20267 33944 ft 422 kts 309°
2026-05-06 14:12 44.62710 21.14043 33940 ft 422 kts 308°
2026-05-06 14:13 44.66523 21.07819 33935 ft 423 kts 308°
2026-05-06 14:13 44.70363 21.01538 33927 ft 423 kts 308°
2026-05-06 14:14 44.74181 20.95279 33927 ft 422 kts 308°
2026-05-06 14:14 44.77980 20.89033 33929 ft 422 kts 308°
2026-05-06 14:15 44.81778 20.82781 33934 ft 421 kts 308°
2026-05-06 14:15 44.85592 20.76488 33936 ft 422 kts 308°
2026-05-06 14:16 44.89383 20.70215 33939 ft 423 kts 308°
2026-05-06 14:16 44.93188 20.63910 33940 ft 422 kts 308°
2026-05-06 14:17 44.96989 20.57596 33938 ft 422 kts 308°
2026-05-06 14:17 45.00772 20.51294 33937 ft 422 kts 308°
2026-05-06 14:18 45.04547 20.44994 33936 ft 421 kts 308°
2026-05-06 14:18 45.08318 20.38685 33935 ft 422 kts 308°
2026-05-06 14:19 45.12116 20.32318 33939 ft 422 kts 307°
2026-05-06 14:19 45.15888 20.25982 33939 ft 422 kts 307°
2026-05-06 14:20 45.19667 20.19618 33939 ft 423 kts 307°
2026-05-06 14:20 45.23445 20.13240 33932 ft 423 kts 307°
2026-05-06 14:21 45.27219 20.06857 33924 ft 423 kts 307°
2026-05-06 14:21 45.30986 20.00469 33922 ft 423 kts 307°
2026-05-06 14:22 45.34750 19.94071 33925 ft 423 kts 307°
2026-05-06 14:22 45.38519 19.87654 33920 ft 424 kts 307°
2026-05-06 14:23 45.42284 19.81227 33921 ft 424 kts 307°
2026-05-06 14:23 45.46038 19.74806 33913 ft 424 kts 307°
2026-05-06 14:24 45.49807 19.68341 33913 ft 423 kts 307°
2026-05-06 14:24 45.53533 19.61936 33913 ft 423 kts 307°
2026-05-06 14:25 45.57290 19.55463 33914 ft 423 kts 307°
2026-05-06 14:25 45.61029 19.49007 33917 ft 423 kts 307°
2026-05-06 14:26 45.64759 19.42551 33912 ft 423 kts 306°
2026-05-06 14:26 45.68500 19.36060 33910 ft 423 kts 306°
2026-05-06 14:27 45.72222 19.29588 33910 ft 423 kts 306°
2026-05-06 14:27 45.75957 19.23079 33903 ft 424 kts 306°
2026-05-06 14:28 45.79683 19.16569 33907 ft 425 kts 306°
2026-05-06 14:28 45.83434 19.10003 33906 ft 425 kts 306°
2026-05-06 14:29 45.87160 19.03467 33903 ft 424 kts 306°
2026-05-06 14:29 45.90874 18.96930 33904 ft 424 kts 306°
2026-05-06 14:30 45.94570 18.90390 33907 ft 424 kts 305°
2026-05-06 14:30 45.98250 18.83768 33904 ft 424 kts 305°
2026-05-06 14:31 46.01909 18.77164 33903 ft 424 kts 304°
2026-05-06 14:31 46.05582 18.70527 33901 ft 424 kts 305°
2026-05-06 14:32 46.09225 18.63930 33903 ft 424 kts 305°
2026-05-06 14:32 46.12909 18.57244 33901 ft 424 kts 304°
2026-05-06 14:33 46.16538 18.50643 33900 ft 424 kts 304°
2026-05-06 14:33 46.20207 18.43951 33902 ft 425 kts 304°
2026-05-06 14:34 46.23880 18.37238 33900 ft 425 kts 304°
2026-05-06 14:34 46.27558 18.30496 33899 ft 424 kts 304°
2026-05-06 14:35 46.31181 18.23845 33897 ft 423 kts 303°
2026-05-06 14:35 46.34831 18.17127 33896 ft 423 kts 303°
2026-05-06 14:36 46.38454 18.10441 33896 ft 422 kts 303°
2026-05-06 14:36 46.42054 18.03779 33901 ft 423 kts 303°
2026-05-06 14:37 46.45699 17.97023 33891 ft 424 kts 303°
2026-05-06 14:37 46.49303 17.90323 33885 ft 424 kts 303°
2026-05-06 14:38 46.52938 17.83549 33884 ft 423 kts 303°
2026-05-06 14:38 46.56528 17.76846 33876 ft 424 kts 303°
2026-05-06 14:39 46.60143 17.70072 33874 ft 424 kts 303°
2026-05-06 14:39 46.63840 17.63387 33872 ft 426 kts 304°
2026-05-06 14:40 46.67630 17.56762 33866 ft 427 kts 304°
2026-05-06 14:40 46.71402 17.50131 33857 ft 426 kts 304°
2026-05-06 14:41 46.75196 17.43432 33857 ft 427 kts 304°
2026-05-06 14:41 46.78972 17.36740 33863 ft 426 kts 304°
2026-05-06 14:42 46.82735 17.30057 33858 ft 426 kts 304°
2026-05-06 14:42 46.86468 17.23408 33858 ft 426 kts 303°
2026-05-06 14:43 46.90228 17.16692 33852 ft 426 kts 304°
2026-05-06 14:43 46.93960 17.10011 33851 ft 426 kts 303°
2026-05-06 14:44 46.97706 17.03290 33848 ft 426 kts 303°
2026-05-06 14:45 47.03335 16.93156 33845 ft 425 kts 303°
2026-05-06 14:45 47.07057 16.86437 33843 ft 426 kts 303°
2026-05-06 14:46 47.10802 16.79657 33835 ft 427 kts 303°
2026-05-06 14:46 47.14545 16.72870 33828 ft 427 kts 303°
2026-05-06 14:47 47.18267 16.66100 33821 ft 428 kts 303°
2026-05-06 14:47 47.22001 16.59290 33829 ft 430 kts 303°
2026-05-06 14:48 47.25750 16.52436 33809 ft 429 kts 303°
2026-05-06 14:48 47.29395 16.45516 33808 ft 428 kts 300°
2026-05-06 14:49 47.32815 16.38388 33808 ft 428 kts 299°
2026-05-06 14:49 47.36230 16.31209 33793 ft 428 kts 298°
2026-05-06 14:50 47.39625 16.24059 33791 ft 427 kts 298°
2026-05-06 14:50 47.43041 16.16853 33798 ft 428 kts 298°
2026-05-06 14:51 47.46423 16.09704 33812 ft 428 kts 298°
2026-05-06 14:51 47.49826 16.02492 33821 ft 429 kts 298°
2026-05-06 14:52 47.53237 15.95243 33829 ft 429 kts 298°
2026-05-06 14:52 47.56635 15.88005 33808 ft 428 kts 298°
2026-05-06 14:53 47.60020 15.80771 33802 ft 428 kts 298°
2026-05-06 14:53 47.63400 15.73531 33791 ft 428 kts 298°
2026-05-06 14:54 47.66764 15.66307 33798 ft 428 kts 298°
2026-05-06 14:54 47.70125 15.59070 33795 ft 427 kts 298°
2026-05-06 14:55 47.73497 15.51793 33804 ft 426 kts 297°
2026-05-06 14:55 47.76837 15.44561 33806 ft 426 kts 297°
2026-05-06 14:56 47.80175 15.37316 33793 ft 425 kts 297°
2026-05-06 14:56 47.83540 15.30073 33786 ft 426 kts 297°
2026-05-06 14:57 47.86953 15.22868 33774 ft 426 kts 297°
2026-05-06 14:57 47.90353 15.15661 33776 ft 426 kts 297°
2026-05-06 14:58 47.93742 15.08459 33753 ft 427 kts 297°
2026-05-06 14:58 47.97142 15.01210 33729 ft 426 kts 297°
2026-05-06 14:59 48.00533 14.93963 33719 ft 427 kts 296°
2026-05-06 14:59 48.03919 14.86690 33712 ft 428 kts 297°
2026-05-06 15:00 48.07140 14.79277 33707 ft 424 kts 294°
2026-05-06 15:00 48.10193 14.71783 33704 ft 424 kts 294°
2026-05-06 15:01 48.13263 14.64222 33709 ft 425 kts 294°
2026-05-06 15:01 48.16330 14.56657 33702 ft 425 kts 294°
2026-05-06 15:02 48.19398 14.49066 33698 ft 425 kts 293°
2026-05-06 15:02 48.22465 14.41466 33698 ft 427 kts 293°
2026-05-06 15:03 48.25534 14.33837 33703 ft 426 kts 292°
2026-05-06 15:03 48.28577 14.26250 33706 ft 427 kts 292°